This demonstration page uses our WeatherBlox Daily Observations layout. Learn more.

Left ArrowRight Arrow

Hourly Observations for December 13, 2016

Temp ( °F °C ) Dew Point ( °F °C ) Humidity (%) Winds ( mph kmh ) Pressure ( in mb ) Visibility ( mi km ) Precip ( " mm )
12:51 am 00:51 Clear 47 8.3 35 1.7 63 63 E 7 11 30.01 1016 10 16 0.00 0.00
1:51 am 01:51 Clear 45 7.2 34 1.1 66 66 E 5 7 30.01 1016 10 16 0.00 0.00
2:51 am 02:51 Clear 46 7.8 35 1.7 66 66 E 7 11 30.00 1016 10 16 0.00 0.00
3:51 am 03:51 Clear 44 6.7 35 1.7 71 71 ESE 5 7 30.00 1016 10 16 0.00 0.00
4:51 am 04:51 Clear 44 6.7 35 1.7 71 71 E 3 6 30.01 1016 10 16 0.00 0.00
5:51 am 05:51 Clear 43 6.1 35 1.7 74 74 ESE 6 9 30.02 1017 10 16 0.00 0.00
6:51 am 06:51 Clear 41 5 33 0.6 73 73 ESE 5 7 30.06 1018 10 16 0.00 0.00
7:51 am 07:51 Sunny 42 5.6 34 1.1 73 73 SE 3 6 30.08 1019 10 16 0.00 0.00
8:51 am 08:51 Sunny 48 8.9 35 1.7 61 61 Calm 30.10 1019 10 16 0.00 0.00
9:51 am 09:51 Sunny 54 12.2 37 2.8 53 53 Calm 30.11 1020 10 16 0.00 0.00
10:51 am 10:51 Sunny 60 15.6 38 3.3 44 44 SSW 3 6 30.10 1019 10 16 0.00 0.00
11:51 am 11:51 Sunny 63 17.2 39 3.9 41 41 WNW 5 7 30.07 1018 10 16 0.00 0.00
12:51 pm 12:51 Sunny 66 18.9 39 3.9 37 37 W 3 6 30.02 1017 10 16 0.00 0.00
1:51 pm 13:51 Sunny 69 20.6 39 3.9 33 33 VRB 7 11 30.00 1016 10 16 0.00 0.00
2:51 pm 14:51 Sunny 68 20 38 3.3 33 33 WNW 9 15 29.99 1016 10 16 0.00 0.00
3:51 pm 15:51 Sunny 67 19.4 39 3.9 36 36 W 8 13 29.99 1016 10 16 0.00 0.00
4:51 pm 16:51 Sunny 63 17.2 39 3.9 41 41 W 6 9 29.99 1016 10 16 0.00 0.00
5:51 pm 17:51 Clear 58 14.4 38 3.3 48 48 N 7 11 30.02 1017 10 16 0.00 0.00
6:51 pm 18:51 Clear 56 13.3 38 3.3 51 51 NW 5 7 30.03 1017 10 16 0.00 0.00
7:51 pm 19:51 Clear 55 12.8 38 3.3 53 53 Calm 30.04 1017 10 16 0.00 0.00
8:51 pm 20:51 Clear 48 8.9 35 1.7 61 61 E 6 9 30.06 1018 10 16 0.00 0.00
9:51 pm 21:51 Clear 47 8.3 35 1.7 63 63 E 5 7 30.06 1018 10 16 0.00 0.00
10:51 pm 22:51 Clear 47 8.3 36 2.2 66 66 S 5 7 30.06 1018 10 16 0.00 0.00
11:51 pm 23:51 Clear 46 7.8 35 1.7 66 66 Calm 30.07 1018 10 16 0.00 0.03

Powered by AerisWeather